TimePDT,TemperatureF,Dew PointF,Humidity,Sea Level PressureIn,VisibilityMPH,Wind Direction,Wind SpeedMPH,Gust SpeedMPH,PrecipitationIn,Events,Conditions,WindDirDegrees,DateUTC
12:15 AM,68.0,48.2,49,29.79,10.0,NW,8.1,-,N/A,,Clear,320,2014-04-18 07:15:00
12:35 AM,66.2,48.2,52,29.79,10.0,NW,8.1,-,N/A,,Clear,320,2014-04-18 07:35:00
12:55 AM,66.2,48.2,52,29.77,10.0,NNW,4.6,-,N/A,,Clear,340,2014-04-18 07:55:00
1:15 AM,64.4,48.2,56,29.78,10.0,WNW,4.6,-,N/A,,Clear,300,2014-04-18 08:15:00
1:35 AM,62.6,48.2,59,29.78,10.0,WNW,4.6,-,N/A,,Clear,290,2014-04-18 08:35:00
1:55 AM,62.6,48.2,59,29.77,10.0,Calm,Calm,-,N/A,,Clear,0,2014-04-18 08:55:00
2:15 AM,60.8,48.2,63,29.77,10.0,West,5.8,-,N/A,,Clear,270,2014-04-18 09:15:00
2:35 AM,60.8,50.0,68,29.77,10.0,WNW,5.8,-,N/A,,Clear,290,2014-04-18 09:35:00
2:55 AM,62.6,50.0,63,29.77,10.0,WNW,6.9,-,N/A,,Clear,290,2014-04-18 09:55:00
3:15 AM,60.8,48.2,63,29.78,10.0,WNW,5.8,-,N/A,,Clear,290,2014-04-18 10:15:00
3:35 AM,60.8,48.2,63,29.78,10.0,NW,6.9,-,N/A,,Clear,310,2014-04-18 10:35:00
3:55 AM,60.8,48.2,63,29.78,10.0,NW,9.2,-,N/A,,Clear,320,2014-04-18 10:55:00
4:15 AM,60.8,48.2,63,29.78,10.0,NNW,4.6,-,N/A,,Clear,340,2014-04-18 11:15:00
4:35 AM,60.8,46.4,59,29.79,10.0,NNW,4.6,-,N/A,,Clear,330,2014-04-18 11:35:00
4:55 AM,60.8,46.4,59,29.80,10.0,NNW,6.9,-,N/A,,Clear,340,2014-04-18 11:55:00
5:15 AM,59.0,46.4,63,29.80,10.0,NW,4.6,-,N/A,,Clear,320,2014-04-18 12:15:00
5:35 AM,57.2,46.4,67,29.80,10.0,NW,5.8,-,N/A,,Clear,320,2014-04-18 12:35:00
5:55 AM,57.2,46.4,67,29.81,10.0,NW,4.6,-,N/A,,Clear,310,2014-04-18 12:55:00
6:15 AM,57.2,46.4,67,29.82,10.0,West,3.5,-,N/A,,Clear,280,2014-04-18 13:15:00
6:35 AM,55.4,46.4,72,29.83,10.0,Calm,Calm,-,N/A,,Clear,0,2014-04-18 13:35:00
6:55 AM,53.6,44.6,72,29.84,10.0,Calm,Calm,-,N/A,,Clear,0,2014-04-18 13:55:00
7:15 AM,55.4,46.4,72,29.85,10.0,SW,3.5,-,N/A,,Clear,230,2014-04-18 14:15:00
7:35 AM,55.4,46.4,72,29.86,8.0,West,3.5,-,N/A,,Clear,280,2014-04-18 14:35:00
7:55 AM,60.8,46.4,59,29.87,10.0,NW,9.2,-,N/A,,Clear,310,2014-04-18 14:55:00
8:15 AM,62.6,46.4,55,29.87,10.0,NW,9.2,-,N/A,,Clear,310,2014-04-18 15:15:00
8:35 AM,62.6,46.4,55,29.87,10.0,NW,6.9,-,N/A,,Clear,310,2014-04-18 15:35:00
8:55 AM,62.6,44.6,52,29.88,10.0,WNW,8.1,-,N/A,,Clear,300,2014-04-18 15:55:00
9:15 AM,62.6,46.4,55,29.88,10.0,WNW,5.8,-,N/A,,Clear,300,2014-04-18 16:15:00
9:35 AM,64.4,46.4,52,29.88,10.0,NW,4.6,-,N/A,,Clear,320,2014-04-18 16:35:00
9:55 AM,66.2,46.4,49,29.88,10.0,NNW,4.6,-,N/A,,Clear,340,2014-04-18 16:55:00
10:15 AM,68.0,48.2,49,29.89,10.0,NNW,4.6,-,N/A,,Clear,330,2014-04-18 17:15:00
10:35 AM,68.0,48.2,49,29.89,10.0,NW,4.6,-,N/A,,Clear,320,2014-04-18 17:35:00
10:55 AM,69.8,48.2,46,-9999,10.0,North,3.5,-,N/A,,Clear,350,2014-04-18 17:55:00
11:15 AM,69.8,48.2,46,29.89,10.0,West,8.1,-,N/A,,Clear,260,2014-04-18 18:15:00
11:35 AM,71.6,50.0,46,29.89,10.0,West,3.5,-,N/A,,Clear,280,2014-04-18 18:35:00
11:55 AM,69.8,48.2,46,29.89,10.0,Calm,Calm,-,N/A,,Clear,0,2014-04-18 18:55:00
12:15 PM,69.8,50.0,49,29.88,10.0,Calm,Calm,-,N/A,,Clear,0,2014-04-18 19:15:00
12:35 PM,71.6,50.0,46,29.88,10.0,West,5.8,-,N/A,,Clear,280,2014-04-18 19:35:00
12:55 PM,71.6,50.0,46,29.88,10.0,West,4.6,-,N/A,,Clear,280,2014-04-18 19:55:00
1:15 PM,73.4,50.0,44,29.87,10.0,NNW,3.5,-,N/A,,Clear,340,2014-04-18 20:15:00
1:35 PM,73.4,51.8,47,29.87,10.0,West,5.8,-,N/A,,Clear,270,2014-04-18 20:35:00
1:55 PM,75.2,51.8,44,29.87,10.0,Calm,Calm,-,N/A,,Clear,0,2014-04-18 20:55:00
2:15 PM,75.2,51.8,44,29.85,10.0,WNW,4.6,-,N/A,,Clear,290,2014-04-18 21:15:00
2:35 PM,77.0,51.8,41,29.84,10.0,WNW,5.8,-,N/A,,Clear,290,2014-04-18 21:35:00
2:55 PM,75.2,50.0,41,29.83,10.0,NNW,6.9,-,N/A,,Clear,340,2014-04-18 21:55:00
3:15 PM,78.8,51.8,39,29.82,10.0,NNW,5.8,-,N/A,,Clear,340,2014-04-18 22:15:00
3:35 PM,75.2,50.0,41,29.81,10.0,West,6.9,-,N/A,,Clear,270,2014-04-18 22:35:00
3:55 PM,78.8,51.8,39,29.80,10.0,WNW,5.8,-,N/A,,Clear,300,2014-04-18 22:55:00
4:15 PM,78.8,51.8,39,29.80,10.0,WSW,4.6,-,N/A,,Clear,250,2014-04-18 23:15:00
4:35 PM,78.8,51.8,39,29.80,10.0,West,6.9,-,N/A,,Clear,280,2014-04-18 23:35:00
4:55 PM,78.8,51.8,39,29.80,10.0,West,5.8,-,N/A,,Clear,270,2014-04-18 23:55:00
5:15 PM,80.6,51.8,37,29.79,10.0,NNW,9.2,-,N/A,,Clear,330,2014-04-19 00:15:00
5:35 PM,80.6,51.8,37,29.79,10.0,WNW,9.2,-,N/A,,Clear,290,2014-04-19 00:35:00
5:55 PM,80.6,51.8,37,29.79,10.0,West,8.1,-,N/A,,Clear,280,2014-04-19 00:55:00
6:15 PM,80.6,51.8,37,29.78,10.0,WNW,6.9,-,N/A,,Clear,290,2014-04-19 01:15:00
6:35 PM,78.8,51.8,39,29.78,10.0,West,8.1,-,N/A,,Clear,280,2014-04-19 01:35:00
6:55 PM,78.8,51.8,39,29.79,10.0,WNW,5.8,-,N/A,,Clear,290,2014-04-19 01:55:00
7:15 PM,75.2,51.8,44,29.79,10.0,WNW,5.8,-,N/A,,Clear,290,2014-04-19 02:15:00
7:35 PM,75.2,51.8,44,29.79,10.0,West,4.6,-,N/A,,Clear,280,2014-04-19 02:35:00
7:55 PM,73.4,51.8,47,29.80,10.0,Calm,Calm,-,N/A,,Clear,0,2014-04-19 02:55:00
8:15 PM,71.6,51.8,50,29.80,10.0,Calm,Calm,-,N/A,,Clear,0,2014-04-19 03:15:00
8:35 PM,71.6,51.8,50,29.82,10.0,Calm,Calm,-,N/A,,Clear,0,2014-04-19 03:35:00
8:55 PM,69.8,51.8,53,29.82,10.0,Calm,Calm,-,N/A,,Clear,0,2014-04-19 03:55:00
9:15 PM,69.8,51.8,53,29.83,10.0,WNW,4.6,-,N/A,,Clear,290,2014-04-19 04:15:00
9:35 PM,69.8,50.0,49,29.85,10.0,WNW,3.5,-,N/A,,Clear,300,2014-04-19 04:35:00
9:55 PM,69.8,50.0,49,29.85,10.0,NW,4.6,-,N/A,,Partly Cloudy,310,2014-04-19 04:55:00
10:15 PM,69.8,50.0,49,29.86,10.0,NNW,4.6,-,N/A,,Partly Cloudy,330,2014-04-19 05:15:00
10:35 PM,69.8,50.0,49,29.87,10.0,NW,4.6,-,N/A,,Clear,320,2014-04-19 05:35:00
10:55 PM,66.2,50.0,56,29.87,10.0,NW,6.9,-,N/A,,Clear,310,2014-04-19 05:55:00
11:15 PM,66.2,50.0,56,29.87,10.0,NW,9.2,-,N/A,,Clear,310,2014-04-19 06:15:00
11:35 PM,66.2,50.0,56,29.88,10.0,NW,10.4,-,N/A,,Clear,320,2014-04-19 06:35:00
11:55 PM,66.2,50.0,56,29.88,10.0,NW,9.2,-,N/A,,Clear,320,2014-04-19 06:55:00